EST,Max TemperatureF,Mean TemperatureF,Min TemperatureF,Max Dew PointF,MeanDew PointF,Min DewpointF,Max Humidity, Mean Humidity, Min Humidity, Max Sea Level PressureIn, Mean Sea Level PressureIn, Min Sea Level PressureIn, Max VisibilityMiles, Mean VisibilityMiles, Min VisibilityMiles, Max Wind SpeedMPH, Mean Wind SpeedMPH, Max Gust SpeedMPH,PrecipitationIn, CloudCover, Events, WindDirDegrees
2000-2-1,26,22,19,23,17,2,93,76,47,30.24,29.97,29.83,10,4,1,21,12,31,0.00,8,Snow,293
2000-2-2,26,16,5,16,9,1,87,71,58,30.35,30.21,29.91,10,9,7,12,8,,0.00,5,,247
2000-2-3,32,26,21,31,24,17,96,90,78,29.88,29.72,29.62,5,2,1,9,7,,0.11,8,Rain-Snow,178
2000-2-4,30,22,14,30,24,1,100,88,56,30.18,29.86,29.66,10,4,1,13,7,22,0.02,7,Snow,360
2000-2-5,35,22,10,20,14,5,88,70,50,30.29,30.13,29.99,10,10,8,24,12,38,0.00,3,Snow,269
2000-2-6,28,18,8,20,14,5,92,75,47,30.41,30.27,30.07,10,8,5,14,6,20,0.00,4,,233
2000-2-7,33,22,10,27,18,2,88,69,41,30.47,30.19,29.99,10,8,4,16,11,24,0.00,5,Snow,321
2000-2-8,28,16,3,18,8,0,88,67,36,30.51,30.37,30.10,10,9,4,14,4,18,0.00,2,,191
2000-2-9,43,35,27,30,26,19,93,75,56,30.05,29.98,29.92,7,5,2,18,9,25,0.00,7,,243
2000-2-10,34,31,28,29,28,26,93,87,79,30.02,29.86,29.68,5,3,2,13,8,21,0.00,7,Rain,88
2000-2-11,28,21,14,24,15,5,88,72,51,30.29,30.04,29.75,10,8,2,16,12,24,0.00,5,Snow,343
2000-2-12,26,16,7,13,9,3,87,68,55,30.32,30.24,30.11,10,10,9,10,4,,0.00,4,,148
2000-2-13,27,24,21,22,19,10,88,81,63,30.10,29.92,29.79,10,7,0,14,7,,0.03,8,Fog-Snow,71
2000-2-14,28,22,14,21,18,7,88,80,71,30.08,29.85,29.70,10,7,2,16,12,,0.00,6,Snow,350
2000-2-15,33,22,12,27,18,8,84,76,61,30.25,30.09,29.82,10,8,6,18,5,20,0.00,6,Snow,209
2000-2-16,37,29,19,34,21,2,87,68,46,30.48,30.09,29.70,10,8,2,18,12,24,0.00,5,Snow,304
2000-2-17,28,19,10,15,9,4,77,62,49,30.60,30.51,30.35,10,10,10,12,5,,0.00,5,,105
2000-2-18,27,24,21,25,20,11,100,83,62,30.32,30.04,29.89,10,3,0,17,12,23,0.07,8,Fog-Snow,49
2000-2-19,28,26,24,22,19,16,88,77,66,30.24,30.14,29.98,10,8,1,15,11,20,0.00,8,Snow,312
2000-2-20,30,28,23,23,21,18,88,74,64,30.36,30.26,30.19,10,7,2,22,14,25,0.00,7,Snow,267
2000-2-21,44,30,15,29,21,14,93,70,43,30.41,30.34,30.27,10,7,2,13,6,,0.00,4,,200
2000-2-22,42,40,37,34,29,26,73,66,58,30.26,30.24,30.23,10,10,9,12,10,,0.00,6,,191
2000-2-23,,,,,,,,,,,,,,,,,,,,,,
2000-2-24,,,,,,,,,,,,,,,,,,,,,,
2000-2-25,,,,,,,,,,,,,,,,,,,,,,
2000-2-26,,,,,,,,,,,,,,,,,,,,,,
2000-2-27,,,,,,,,,,,,,,,,,,,,,,
2000-2-28,,,,,,,,,,,,,,,,,,,,,,
2000-2-29,,,,,,,,,,,,,,,,,,,,,,